TimeEST,TemperatureF,Dew PointF,Humidity,Sea Level PressureIn,VisibilityMPH,Wind Direction,Wind SpeedMPH,Gust SpeedMPH,PrecipitationIn,Events,Conditions,WindDirDegrees,DateUTC
12:54 AM,37.4,12.2,36,29.97,10.0,WNW,12.7,24.2,N/A,,Clear,290,2013-02-20 05:54:00
1:54 AM,36.0,8.1,31,29.99,10.0,West,18.4,27.6,N/A,,Clear,280,2013-02-20 06:54:00
2:54 AM,34.0,8.1,34,29.98,10.0,West,15.0,27.6,N/A,,Clear,280,2013-02-20 07:54:00
3:54 AM,34.0,8.1,34,29.99,10.0,WNW,17.3,28.8,N/A,,Clear,290,2013-02-20 08:54:00
4:54 AM,32.0,7.0,35,30.01,10.0,WNW,11.5,23.0,N/A,,Clear,290,2013-02-20 09:54:00
5:54 AM,32.0,7.0,35,30.01,10.0,WNW,17.3,24.2,N/A,,Clear,290,2013-02-20 10:54:00
6:54 AM,30.2,8.6,40,30.01,10.0,WNW,16.1,23.0,N/A,,Clear,300,2013-02-20 11:54:00
7:54 AM,30.9,7.0,37,30.05,10.0,WNW,18.4,28.8,N/A,,Clear,300,2013-02-20 12:54:00
8:54 AM,32.0,8.1,37,30.06,10.0,WNW,24.2,32.2,N/A,,Clear,290,2013-02-20 13:54:00
9:54 AM,34.0,8.1,34,30.07,10.0,WNW,18.4,29.9,N/A,,Clear,300,2013-02-20 14:54:00
10:54 AM,37.0,8.1,30,30.07,10.0,NW,20.7,29.9,N/A,,Clear,310,2013-02-20 15:54:00
11:54 AM,39.0,8.1,28,30.06,10.0,NW,18.4,25.3,N/A,,Clear,310,2013-02-20 16:54:00
12:54 PM,41.0,7.0,25,30.05,10.0,NW,18.4,24.2,N/A,,Clear,320,2013-02-20 17:54:00
1:54 PM,44.1,7.0,22,30.04,10.0,NNW,17.3,23.0,N/A,,Clear,330,2013-02-20 18:54:00
2:54 PM,45.0,8.1,22,30.04,10.0,NW,16.1,26.5,N/A,,Clear,320,2013-02-20 19:54:00
3:54 PM,44.1,8.1,23,30.05,10.0,NW,19.6,26.5,N/A,,Clear,320,2013-02-20 20:54:00
4:54 PM,41.0,7.0,25,30.07,10.0,NW,16.1,29.9,N/A,,Clear,310,2013-02-20 21:54:00
5:54 PM,37.9,8.1,29,30.11,10.0,WNW,12.7,-,N/A,,Clear,290,2013-02-20 22:54:00
6:54 PM,36.0,9.0,33,30.14,10.0,WNW,15.0,-,N/A,,Clear,300,2013-02-20 23:54:00
7:54 PM,34.0,10.0,37,30.17,10.0,WNW,15.0,21.9,N/A,,Clear,300,2013-02-21 00:54:00
8:54 PM,34.0,10.0,37,30.18,10.0,WNW,12.7,-,N/A,,Clear,290,2013-02-21 01:54:00
9:54 PM,33.1,10.9,40,30.18,10.0,WNW,16.1,24.2,N/A,,Clear,300,2013-02-21 02:54:00
10:54 PM,33.1,10.9,40,30.17,10.0,NW,11.5,-,N/A,,Clear,310,2013-02-21 03:54:00
11:54 PM,32.0,10.0,40,30.17,10.0,West,8.1,-,N/A,,Clear,280,2013-02-21 04:54:00